STARLINK-36879, 67982

Orbit data source: Space-Track

STARLINK-36879, 67982 is a payload satellite owned by SpaceX/Seattle (US) in SSO that was launched on Wed, 25 Feb 2026 UTC via an FALCON 9 launch vehicle from the Air Force Western Test Range (AFWTR). Payload-class satellites include a variety of spacecraft equipped with specific instruments for various scientific and technological missions. These include communications satellites like Starlink; space stations such as the ISS; scientific satellites like the Hubble; Earth observation satellites from companies like Planet Labs, Umbra, and HawkEye 360; GPS; miniature CubeSats for education and research; and military/defense satellites.

Loading next visibility...
Identifier
67982, 2026-038X
Orbit
SSO
Country
Flag of USUS
Related business
Manufacturer
SpaceX/Seattle
Mission
Operational Commercial Communications
Bus & Motor
STARLINK V2MO, Unknown motor
Mass
575 kg wet, ~530 kg dry
Launch date (UTC)
2026-02-25 (4 months ago)
Launch vehicle
FALCON 9
Launch site
Air Force Western Test Range (AFWTR)
Object type
Payload
Rocket body
Debris
Shape & HBR
Box + 2 Pan, 17.7 m
Radar Cross Section
36.964 m², Large (>1 m²)

Expand to show TLE details & history
Last TLE update: 20 hours ago

TLE from 20 hours ago
0 STARLINK-36879
1 67982U 26038X   26171.00636935  .00020017  00000-0  62049-3 0  9994
2 67982  97.2843 180.7330 0001736  99.7586 260.3853 15.33455515 18924
Epoch: 2026-06-20T00:09Z
TLE epoch observation values (Epoch: 2026-06-20T00:09:10.311Z)
Latitude
-0.00003°
Longitude
-89.78715°
Altitude
468.823 km
Speed
7.632 km/s
True Right ascension
12h 02m 55s
True Declination
0° 00' 00"
Sunlit
Object was in daylight at epoch
Visualization orbit readout
Latitude
Unknown
Longitude
Unknown
Altitude
Unknown
Speed
Unknown
Apparent Right ascension
Unknown
Apparent Declination
Unknown
Sunlit
N/A
Visualization observer readout
Local Sidereal Time
07:13:17
Azimuth
Unknown
Elevation
Unknown
Doppler factor
Unknown
Orbital elements
Apogee altitude
463.642 km
Perigee altitude
461.267 km
Semi-major axis
6,840.592 km
Eccentricity
0.00017
Inclination
97.2843°
RAAN
180.733°
Arg. of periapsis
99.7586°
True anomaly
260.36569°
Mean anomaly
260.3853°
Eccentric anomaly
260.37549°
Mean motion
3.83621 °/min
Orbital period
93.84 mins
BSTAR
0.00062049
Loading maneuver chart data...
Computing Atmospheric mass density...
Loading historical data...
Loading historical data...
Loading historical data...
Loading historical data...
Loading historical data...
Loading historical data...
Loading historical data...

Documentation

Showing up to 5 results
|